Location: Marcé
(47.5801°N, 0.3280°W)
Time: 08:20:32
(UTC+01:00)

Vanguard 1 - Pass Details

Date: 01 December 2021
Orbit: 652 x 3830 km, 34.2° (Epoch: 24 January)

Event Time Altitude Azimuth Distance (km) Brightness Sun altitude
Rises 05:12:56 0° 266° (W) 7,967 - -32.2°
Reaches altitude 10° 05:18:51 10° 262° (W) 6,836 - -31.2°
Exits shadow 05:30:22 34° 244° (WSW) 4,625 12.9 -29.2°
Maximum altitude 05:38:46 48° 198° (SSW) 3,486 12.6 -27.8°
Drops below altitude 10° 05:51:12 10° 129° (SE) 4,422 14.1 -25.7°
Sets 05:54:07 0° 123° (ESE) 5,071 14.7 -25.3°
